Weather Roundup
Issued by NWS

Home | Current Version | Previous Version | Graphics & Text | Print | Product List | Glossary Off
Versions: 1 2 3 4 5 6 7 8 9 10 11 12 13 14 15 16 17 18 19 20 21 22 23 24 25 26 27 28 29 30 31 32 33 34 35 36 37 38 39 40 41 42 43 44 45 46 47 48 49 50

000
NZUS93 KARX 230759
HRRWXR

CURRENT HOURLY OBSERVATIONS ACROSS
MUCH OF THE UPPER MISSISSIPPI VALLEY
NATIONAL WEATHER SERVICE LA CROSSE WI
200 AM CST THU FEB 23 2017


...SOUTHEAST MINNESOTA...


CITY           SKY/WX    TMP DP  RH WIND       PRES   REMARKS
ROCHESTER      CLOUDY    38  36  92 NW16      29.78R WCI  29
ROCHESTER/MAYO CLOUDY    39  35  86 NW16G22   29.79R WCI  30
WINONA         CLOUDY    41  34  75 NW14G23   29.78R
AUSTIN         CLOUDY    37  34  87 NW15G23   29.79R WCI  28
ALBERT LEA     CLOUDY    37  34  87 N18       29.81R WCI  27
DODGE CENTER   NOT AVBL
PRESTON        CLOUDY    39  35  84 N16       29.76S WCI  30
OWATONNA       CLOUDY    36  32  87 N14G22    29.82S WCI  27
FARIBAULT      CLOUDY    36  32  87 NW12      29.83S WCI  27
$$

...ELSEWHERE IN MINNESOTA...


CITY           SKY/WX    TMP DP  RH WIND       PRES   REMARKS
MINNEAPOLIS    CLOUDY    37  30  75 N15G23    29.85R WCI  28
INTNL FALLS    CLOUDY    26  18  71 NW15      29.90R WCI  14
DULUTH         CLOUDY    30  27  88 N9        29.81R WCI  22
RED WING       CLOUDY    37  32  81 N9        29.82R WCI  31
REDWOOD FALLS  CLOUDY    35  30  82 N12       29.88S WCI  27
MANKATO          N/A     36  32  85 N16       29.84F WCI  26
WORTHINGTON    CLOUDY    31  30  96 N25       29.83F FOG     WCI  17
FAIRMONT       CLOUDY    35  32  88 N15G28    29.84R WCI  25
$$

...SOUTHWEST WISCONSIN...


CITY           SKY/WX    TMP DP  RH WIND       PRES   REMARKS
LA CROSSE      MOCLDY    42  37  82 NW14      29.74R
PRAIRIE DU CHI CLOUDY    46  39  77 NW8       29.73S
BOSCOBEL       CLOUDY    50  42  74 W9        29.72R
LONE ROCK      NOT AVBL
PLATTEVILLE    MOCLDY    46  46  99 W10       29.71R
FORT MC COY    CLOUDY    45  40  81 W15       29.72R
CAMP DOUGLAS   CLOUDY    46  41  81 W14       29.67R
MAUSTON-NEW LI CLOUDY    48  42  79 NW14G24   29.67R
VIROQUA        FAIR      43  40  90 NW10      29.71R
WIS DELLS      CLEAR     46  41  81 W10       29.67R
$$

...ELSEWHERE IN WISCONSIN...


CITY           SKY/WX    TMP DP  RH WIND       PRES   REMARKS
MILWAUKEE      CLEAR     55  44  66 W12       29.62R
MADISON        CLEAR     48  42  80 W9        29.66R
GREEN BAY      CLEAR     38  38 100 CALM      29.60R
EAU CLAIRE     NOT AVBL
BLACK RVR FLS  CLOUDY    44  37  76 NE14      29.73R
MEDFORD        CLOUDY    35  33  92 N10G18    29.67R WCI  28
WAUSAU         CLOUDY    39  38  96 NW13      29.64R WCI  31
WIS RAPIDS     MOCLDY    44  41  89 NW9       29.67R
MARSHFIELD     CLOUDY    39  36  89 NW17      29.67R WCI  30
RICE LAKE      CLOUDY    35  32  90 NW6       29.81R WCI  30
$$

...NORTHEAST IOWA...


CITY           SKY/WX    TMP DP  RH WIND       PRES   REMARKS
WATERLOO       CLOUDY    42  37  82 NW16      29.77S
DUBUQUE        PTCLDY    44  41  89 NW15      29.72R
DECORAH        CLOUDY    43  39  87 NW13G20   29.73S
MASON CITY     CLOUDY    37  35  92 N20       29.81R WCI  27
CHARLES CITY   CLOUDY    41  41 100 NW16G23   29.79R
OELWEIN        CLOUDY    43  41  93 NW17      29.78R
$$

...ELSEWHERE IN IOWA...


CITY           SKY/WX    TMP DP  RH WIND       PRES   REMARKS
DES MOINES     PTCLDY    43  38  82 N15       29.79R
IOWA CITY      CLEAR     45  40  82 NW13      29.76R
FORT DODGE     CLOUDY    37  30  75 N15       29.82F WCI  28
MARSHALLTOWN   CLOUDY    40  38  93 NW13      29.79R WCI  32
CEDAR RAPIDS   CLOUDY    42  42 100 NW15      29.75R
$$

...NORTHERN ILLINOIS...


CITY           SKY/WX    TMP DP  RH WIND       PRES   REMARKS
CHICAGO-OHARE  CLEAR     55  49  80 SW10      29.65R
CHICAGO-MIDWAY CLEAR     57  50  77 W12       29.67R
MOLINE         CLEAR    N/A N/A N/A NW8       29.73R
ROCKFORD       PTCLDY    50  43  77 W5        29.70R
PEORIA         FOG       46  46 100 CALM      29.72R VSB<1/4
$$

NOTE: "FAIR" INDICATES FEW OR NO CLOUDS BELOW 12,000 FEET WITH NO
SIGNIFICANT WEATHER AND/OR OBSTRUCTIONS TO VISIBILITY. WIND
SPEEDS ARE IN MILES-PER-HOUR.




USA.gov is the U.S. government's official web portal to all federal, state and local government web resources and services.